LEMUR-2-TACHIKOMA

Last updated on Feb. 14, 2018, 4:20 p.m. UTC

1 41998U 17008BC  18045.18354235  .00001203  00000-0  53922-4 0  9997
2 41998  97.4649 110.5317 0010407  84.8775 275.3650 15.23144125 54602
UTC
Height (km)
Latitude
Longitude
Inclination
Orbital Period
UTC large
Height (km)
Speed (km/s)
/
Latitude / Longitude
Inclination (degrees)
Orbital Period (minutes)
Azimuth
Elevation
Range (km)
Doppler Factor
iOS Compass Heading
iOS Angle